Theta_e
325 326 327 328 330 336 336 341 338 332 329 343 341 345 342 341 341 343 344 342 340 340 339 343 343 335 336 343 350 350 346 350 349 350 350 345 343 347 347 348 345 342 338 337
327 325 326 329 331 331 334 336 338 343 343 340 338 341 342 343 342 341 340 339 338 336 336 335 337 336 333 336 343 347 349 348 350 344 344 345 344 344 345 347 344 341 340 341
327 325 326 328 339 339 332 333 339 342 342 340 342 340 338 339 340 339 339 338 337 340 338 336 334 333 334 335 336 338 340 344 338 336 342 342 335 339 337 344 345 342 341 342
326 328 327 336 333 330 333 336 337 339 341 340 340 339 339 338 337 338 338 337 337 338 339 340 340 341 343 336 337 336 335 334 335 334 334 336 334 334 340 343 344 345 341 342
328 327 327 337 332 329 331 335 332 335 334 332 333 334 334 335 336 334 334 333 335 335 336 339 341 343 343 342 340 339 332 332 333 335 334 333 333 333 339 343 345 346 345 337
327 328 326 337 330 331 331 334 329 335 335 335 336 339 336 336 333 330 329 329 329 328 328 330 334 336 339 341 341 341 341 338 337 335 334 336 337 341 344 345 345 346 346 345
330 329 334 335 333 332 336 335 333 334 333 334 336 332 335 332 329 327 326 326 326 326 327 327 328 328 330 331 333 336 338 339 339 339 339 340 345 347 346 346 346 347 346 345
332 335 332 330 332 336 334 334 333 334 332 333 335 335 333 330 327 326 325 325 326 325 324 323 324 324 325 326 328 329 330 331 332 335 336 336 336 339 343 344 344 344 345 345
332 334 330 329 330 330 332 334 334 335 333 335 334 333 331 329 327 325 324 324 324 322 322 321 321 322 323 324 325 326 328 330 332 334 335 336 335 335 336 336 337 338 338 338
331 331 331 329 330 327 329 333 334 334 333 335 334 332 330 329 325 322 323 322 321 321 321 321 321 321 322 324 324 324 324 325 327 330 332 334 335 333 331 330 330 333 331 330
330 329 330 330 327 328 330 331 333 333 332 333 329 328 329 328 324 322 321 320 321 321 320 319 319 319 318 319 320 321 323 324 325 326 329 331 333 334 333 335 335 334 331 333
330 328 329 328 327 327 328 327 329 329 330 331 330 329 329 327 327 326 322 321 320 319 319 319 319 319 318 318 318 316 318 324 325 326 327 328 329 331 332 333 334 333 335 333
328 327 327 327 326 324 325 324 326 329 330 329 327 329 329 328 328 327 323 320 319 321 321 319 319 319 318 316 318 318 315 322 324 323 326 328 328 330 332 333 334 334 333 335
325 327 328 326 327 325 325 326 325 324 327 329 328 328 328 328 327 328 324 319 320 322 323 322 321 319 318 316 316 316 316 317 323 322 323 325 326 327 328 330 330 331 332 333
325 327 326 326 325 324 326 323 320 320 324 326 326 327 328 327 327 323 320 321 324 324 323 323 321 319 316 316 316 315 315 315 318 322 322 323 325 326 326 327 328 329 330 332
324 326 326 325 325 327 323 321 319 320 322 324 323 323 323 321 321 321 323 324 323 323 323 321 319 316 315 315 315 315 315 315 316 320 321 323 325 327 325 325 325 326 326 327
325 324 323 324 325 328 321 320 320 319 320 320 318 318 319 320 320 321 322 322 322 320 319 317 316 315 315 316 317 319 319 318 316 320 323 323 324 325 325 325 324 323 323 323
324 320 321 323 325 326 322 320 321 321 322 322 319 320 321 320 320 320 320 319 317 315 316 316 316 315 315 317 318 318 319 318 319 322 322 324 324 325 327 324 323 322 321 320
321 319 320 325 326 324 322 321 321 321 320 320 320 319 321 322 321 321 320 316 315 316 317 315 314 314 316 316 317 319 320 321 322 323 323 324 326 325 325 325 323 324 325 323
322 321 321 324 324 323 323 322 322 323 323 323 322 321 321 322 322 321 318 315 314 312 314 314 314 314 315 316 317 318 320 321 321 323 324 324 324 324 325 325 323 324 323 323
324 324 324 324 324 324 324 322 321 320 320 320 320 321 322 322 321 320 316 316 313 311 314 314 315 315 315 315 316 320 321 322 321 322 323 323 322 326 327 323 323 323 323 322
323 323 322 321 320 320 320 320 319 319 321 322 320 317 316 317 318 317 315 314 313 310 315 315 316 315 314 315 314 316 317 318 318 319 320 321 322 321 322 323 323 323 322 322
316 318 318 318 318 318 318 317 317 319 321 321 317 316 315 314 315 316 317 318 314 308 315 316 313 313 314 314 314 314 315 314 315 315 314 314 316 319 320 320 320 321 321 321
318 319 319 318 318 318 318 318 318 317 319 320 318 317 315 315 316 315 315 314 313 308 315 314 312 312 314 313 313 313 313 315 315 312 311 311 315 314 315 317 319 319 320 320
320 320 320 320 320 320 320 320 320 320 320 319 319 319 318 316 316 317 317 314 310 310 315 312 312 312 311 312 312 312 311 312 314 314 314 314 313 313 311 310 310 311 312 314
320 321 321 319 319 318 318 319 318 317 318 320 319 319 319 318 315 315 317 315 311 311 314 312 312 312 312 312 312 312 311 311 312 313 314 314 314 313 313 312 311 310 311 311
320 320 320 319 318 317 317 318 318 319 320 320 320 320 319 319 319 318 316 313 311 311 311 311 312 311 312 312 313 313 312 312 311 311 311 311 311 311 310 311 311 310 310 310
Wind_Speed
10 12 9 14 16 7 6 3 4 16 15 4 2 5 8 10 11 15 20 25 24 22 24 21 18 4 44 32 15 22 19 24 25 20 18 18 16 19 23 25 27 26 25 24
15 10 7 12 6 9 5 10 6 4 3 3 2 9 8 8 10 12 12 12 11 11 11 4 5 6 15 21 14 5 21 28 26 20 16 19 17 17 22 28 28 28 29 28
12 9 11 9 3 3 1 7 7 11 3 7 7 7 5 7 8 12 15 13 11 17 11 11 10 16 19 19 8 3 7 14 9 4 17 19 18 19 33 32 31 28 29 30
8 8 11 4 4 3 3 6 11 9 6 9 8 8 7 7 7 13 18 16 16 13 14 14 10 4 4 8 13 13 14 12 12 9 8 22 22 33 37 36 37 36 32 32
5 6 5 8 2 2 2 2 6 7 1 3 6 6 6 9 8 8 11 14 13 12 13 12 12 9 9 13 15 17 17 16 16 11 12 16 26 24 29 32 36 42 37 35
2 5 6 6 7 4 5 5 8 4 8 5 7 4 2 4 2 5 10 11 14 14 13 11 11 9 4 5 9 11 14 15 13 13 22 29 32 37 37 34 35 37 38 40
6 5 0 7 2 3 3 1 5 5 3 5 5 2 3 2 5 7 13 14 13 15 17 18 17 13 10 8 1 2 4 6 9 11 14 17 19 22 25 30 33 34 35 37
3 3 3 11 4 4 3 4 4 4 6 9 10 7 4 2 5 9 12 12 15 17 18 18 18 17 17 14 12 7 4 6 8 8 9 13 15 16 18 21 28 32 36 37
3 4 3 6 3 5 4 4 6 8 10 9 7 4 2 3 5 8 6 10 14 16 17 19 19 20 18 15 15 13 9 6 5 5 5 7 10 13 17 21 24 25 29 33
4 3 3 4 2 10 4 8 8 10 10 7 7 4 2 4 3 5 8 11 13 14 15 17 18 18 19 18 19 19 17 15 11 8 8 9 10 11 14 15 17 19 23 24
6 8 5 3 5 5 9 9 7 7 7 7 6 4 2 1 2 6 6 8 9 11 13 13 14 14 15 15 16 17 18 20 16 14 9 8 11 14 15 14 15 15 12 12
3 6 1 0 3 4 6 7 5 5 4 4 3 4 5 5 2 4 2 3 5 9 10 11 13 14 14 14 14 15 16 17 17 16 15 11 11 15 16 15 15 13 11 13
4 4 4 3 4 2 4 6 5 3 3 3 3 6 7 5 2 2 2 1 3 6 9 13 14 15 16 16 15 14 13 13 13 16 14 17 12 12 12 14 13 13 13 13
9 4 3 3 2 4 3 6 5 7 7 2 2 2 1 1 2 3 5 2 4 7 10 12 15 17 18 19 18 16 13 12 13 15 15 16 17 14 13 12 12 11 12 12
9 7 2 0 2 1 4 4 6 7 5 4 5 5 2 1 0 3 3 3 7 9 11 14 17 19 18 18 17 18 16 13 14 14 15 16 16 14 14 12 11 11 11 8
12 9 5 3 3 5 4 4 5 6 5 6 6 5 5 6 3 4 7 9 11 12 14 16 19 19 17 18 19 18 15 12 11 12 13 12 12 12 10 8 9 15 17 10
8 5 7 9 9 8 5 3 3 4 4 4 4 4 4 4 5 6 8 10 13 16 17 17 16 16 17 15 16 14 13 11 8 9 10 11 8 9 7 2 2 8 5 13
4 2 4 3 8 9 5 3 1 1 1 1 0 1 2 3 4 6 9 13 15 13 11 10 10 11 11 14 15 14 14 11 9 9 9 7 6 6 5 2 2 1 5 9
5 4 3 4 4 6 4 3 2 4 5 6 7 7 6 6 7 8 11 16 13 11 8 9 10 10 10 12 15 12 10 8 8 8 8 6 4 3 3 3 2 6 6 6
5 5 3 3 3 4 3 5 6 7 8 8 9 10 10 10 10 10 14 11 12 12 9 7 8 7 9 11 11 11 10 9 8 8 8 8 6 4 4 1 8 7 6 9
9 8 7 5 2 0 3 5 8 10 10 10 10 9 6 7 9 11 8 6 10 10 7 5 4 5 7 9 10 10 10 11 11 9 8 8 8 5 7 10 13 9 9 8
7 6 5 4 3 3 4 5 8 8 2 2 4 6 7 8 8 7 6 8 11 8 4 2 0 3 5 8 9 9 10 12 12 12 13 12 9 10 7 4 7 6 3 1
5 6 5 4 4 4 5 7 7 5 4 4 6 9 12 7 3 4 6 9 10 8 2 2 2 5 3 6 10 11 8 9 8 9 10 11 10 10 8 3 3 5 10 12
4 4 4 3 3 4 5 7 8 8 8 8 7 8 8 5 4 5 9 9 9 6 6 3 2 2 1 4 3 4 4 6 8 10 10 10 7 6 7 9 8 7 10 10
4 5 7 9 11 9 8 9 11 11 12 12 11 10 10 10 9 8 11 11 9 5 7 5 2 2 2 2 3 5 5 3 2 3 3 4 5 5 6 7 7 7 9 10
6 8 8 7 8 7 8 10 14 16 16 13 11 11 12 11 11 11 11 11 9 6 7 7 6 5 4 5 5 6 6 5 4 5 6 4 3 1 1 1 3 5 7 9
7 7 6 7 9 9 9 12 13 13 12 9 12 12 11 13 15 15 11 9 6 5 6 7 8 8 10 9 8 9 8 8 6 6 6 6 7 6 5 5 5 5 7 9
Wind_Direction
262 269 277 274 291 309 314 340 270 310 296 65 44 49 81 79 75 70 67 67 64 80 100 121 150 357 338 322 167 183 173 197 204 205 215 211 220 243 249 251 250 245 238 237
291 295 293 285 323 331 348 4 349 357 93 133 162 84 70 80 77 74 73 71 71 65 64 338 270 304 306 333 350 232 211 209 210 195 208 204 199 227 258 261 252 247 244 244
283 292 300 280 307 328 50 32 359 300 160 170 120 86 79 60 53 68 75 66 56 49 55 80 85 143 179 215 292 218 203 205 195 232 223 212 246 259 281 257 259 251 251 249
279 299 276 100 115 29 335 96 75 329 178 152 115 115 75 39 46 80 88 78 68 67 68 72 94 111 190 169 172 208 214 232 231 232 242 232 264 263 268 250 253 255 258 257
255 259 310 186 112 222 273 118 62 346 218 98 64 354 28 0 9 13 60 77 77 66 69 73 78 92 124 174 190 187 175 167 175 191 283 272 238 222 253 255 256 256 255 253
250 256 270 76 136 164 284 357 308 266 193 214 277 260 122 332 10 21 55 59 64 47 46 60 79 97 135 147 144 173 195 221 234 233 220 228 237 248 257 259 258 253 253 252
260 258 210 53 30 216 303 314 223 206 283 241 243 316 76 25 15 27 50 54 58 59 58 54 52 48 43 53 58 273 228 245 246 257 265 262 258 260 264 260 258 258 259 259
282 259 223 14 113 245 38 33 44 238 217 152 132 129 139 83 18 23 30 44 59 60 56 57 52 50 45 39 39 35 12 303 296 296 300 289 280 269 267 265 264 264 263 267
256 332 352 340 321 330 329 47 93 118 138 131 127 106 65 31 22 41 26 52 60 62 60 55 53 50 52 43 41 35 23 355 321 298 281 274 271 268 264 261 262 265 266 268
290 154 328 346 316 64 63 89 85 94 110 129 127 126 90 37 37 71 64 75 71 63 56 49 45 42 44 37 33 30 25 17 3 340 312 290 274 268 265 268 273 284 279 273
276 310 303 63 70 53 71 96 92 102 114 133 127 118 107 92 74 58 44 46 48 47 44 39 31 22 18 9 4 11 16 8 360 358 345 323 296 286 277 281 293 299 293 291
306 334 33 184 195 28 66 69 96 115 120 140 144 180 183 188 135 58 352 28 44 46 33 19 14 4 358 351 349 353 354 359 0 355 346 343 330 306 293 290 289 282 292 291
265 315 204 43 152 57 67 35 52 74 70 143 157 183 190 197 170 42 294 333 25 22 14 12 6 352 347 345 342 342 340 338 346 353 2 354 349 319 319 314 308 290 275 273
246 215 225 90 92 50 67 69 58 32 46 91 84 117 97 201 196 231 238 243 331 351 348 353 346 344 338 335 332 331 331 320 324 339 348 357 353 349 340 332 317 308 292 276
225 206 219 155 55 149 133 78 31 28 35 45 51 51 55 89 248 215 224 309 326 326 329 334 328 333 333 335 333 329 331 321 317 330 341 336 351 352 357 347 337 326 322 314
203 204 239 232 207 164 150 74 44 36 42 70 72 58 60 83 48 328 325 329 329 326 325 324 323 328 331 336 336 332 328 320 309 319 335 343 355 356 1 20 54 52 51 50
176 205 224 245 214 191 175 96 45 50 90 107 82 65 39 2 351 346 343 336 326 324 320 318 322 327 335 338 333 331 329 324 318 333 330 340 347 5 14 296 24 7 65 89
212 284 275 243 200 196 177 134 48 24 195 223 158 50 53 16 352 340 333 326 320 323 322 316 317 327 329 342 347 343 335 335 341 337 337 334 319 314 358 318 278 284 103 104
242 245 223 199 187 199 184 206 291 303 306 292 290 299 301 305 305 309 326 332 330 330 323 319 324 333 348 357 353 347 351 355 351 350 341 333 344 244 300 319 205 157 149 144
83 77 112 154 176 175 239 249 285 304 303 296 291 287 290 298 302 309 328 330 324 326 328 332 333 345 357 1 3 3 2 359 11 19 25 16 11 38 50 120 169 174 141 104
99 99 103 109 114 321 294 300 315 323 316 310 302 283 291 298 298 306 311 322 323 322 330 331 337 350 1 7 14 19 18 23 31 37 43 44 31 60 105 128 173 168 165 142
74 62 44 21 356 346 347 343 340 343 25 58 18 346 332 314 301 304 308 315 334 321 329 347 66 325 339 352 10 11 26 33 34 42 48 50 56 63 80 119 176 175 197 178
57 66 61 62 66 48 23 12 3 350 337 327 337 345 346 337 321 329 319 308 318 314 243 160 343 1 40 53 38 38 32 30 26 53 49 48 51 63 75 95 131 159 157 145
39 31 27 15 342 339 348 348 343 331 312 298 305 313 329 323 292 303 320 311 307 291 209 228 337 5 237 324 358 18 12 43 56 44 42 45 55 69 82 98 121 117 140 154
295 322 331 325 321 313 302 309 321 316 306 300 291 292 295 296 289 290 309 319 314 279 209 227 287 344 357 11 1 343 347 316 315 16 359 29 51 72 89 98 114 136 154 160
296 306 308 317 337 337 334 321 317 314 303 289 290 292 287 281 289 297 299 299 292 273 236 248 266 275 292 307 311 328 341 340 281 285 299 300 299 312 225 156 137 147 161 163
302 318 315 327 334 331 329 327 324 323 304 284 291 301 299 279 275 273 280 276 273 257 252 258 273 269 263 274 288 300 299 301 309 306 309 308 291 278 284 265 242 217 200 197